| time (UTC) | temp F | wind direction | speed knots | gust knots | rain 1hr in | rain 24hr in | rain mn in | humidity % | barometer mb |
| 20260504050450 | 44 | 54 | 0.0 | 2.6 | 0.00 | 0.03 | 0.00 | 95 | 1007.8 |
| 20260504045948 | 44 | 293 | 0.0 | 3.5 | 0.00 | 0.03 | 0.00 | 95 | 1007.9 |
| 20260504044948 | 44 | 125 | 0.9 | 1.7 | 0.00 | 0.03 | 0.00 | 95 | 1007.9 |
| 20260504044448 | 44 | 169 | 0.0 | 0.0 | 0.00 | 0.03 | 0.00 | 95 | 1008.1 |
| 20260504043949 | 44 | 169 | 0.0 | 0.0 | 0.00 | 0.03 | 0.00 | 95 | 1008.1 |
| 20260504043448 | 44 | 169 | 0.0 | 1.7 | 0.00 | 0.03 | 0.00 | 94 | 1008.1 |
| 20260504042448 | 44 | 99 | 0.0 | 2.6 | 0.00 | 0.03 | 0.00 | 94 | 1008.0 |
| 20260504041949 | 44 | 101 | 0.0 | 1.7 | 0.00 | 0.03 | 0.00 | 94 | 1008.0 |
| 20260504041448 | 44 | 103 | 0.0 | 1.7 | 0.00 | 0.03 | 0.00 | 94 | 1008.0 |
| 20260504040948 | 44 | 178 | 1.7 | 2.6 | 0.00 | 0.03 | 0.00 | 94 | 1008.0 |
| 20260504040447 | 44 | 240 | 0.9 | 3.5 | 0.00 | 0.03 | 0.00 | 94 | 1008.0 |
| 20260504035949 | 44 | 211 | 0.0 | 3.5 | 0.01 | 0.03 | 0.00 | 94 | 1007.9 |
| 20260504035447 | 43 | 134 | 0.0 | 2.6 | 0.01 | 0.03 | 0.03 | 94 | 1008.0 |
| 20260504034947 | 43 | 45 | 0.0 | 2.6 | 0.01 | 0.03 | 0.03 | 94 | 1008.0 |
| 20260504034447 | 43 | 150 | 0.0 | 0.9 | 0.01 | 0.03 | 0.03 | 94 | 1008.0 |
| 20260504033947 | 43 | 194 | 0.0 | 1.7 | 0.01 | 0.03 | 0.03 | 94 | 1008.0 |
| 20260504033447 | 43 | 219 | 0.0 | 2.6 | 0.02 | 0.03 | 0.03 | 93 | 1008.0 |
| 20260504032949 | 43 | 326 | 0.0 | 2.6 | 0.02 | 0.03 | 0.03 | 93 | 1008.1 |
| 20260504032447 | 43 | 84 | 0.9 | 2.6 | 0.02 | 0.03 | 0.03 | 93 | 1008.0 |
| 20260504031947 | 43 | 137 | 0.0 | 6.1 | 0.02 | 0.03 | 0.03 | 92 | 1008.1 |
| 20260504031447 | 43 | 224 | 0.0 | 6.1 | 0.02 | 0.03 | 0.03 | 92 | 1008.1 |
| 20260504030947 | 43 | 25 | 0.9 | 3.5 | 0.02 | 0.03 | 0.03 | 91 | 1008.2 |
| 20260504030447 | 43 | 122 | 0.9 | 3.5 | 0.02 | 0.03 | 0.03 | 91 | 1008.2 |
| 20260504025947 | 43 | 157 | 0.9 | 3.5 | 0.01 | 0.02 | 0.02 | 91 | 1008.2 |
| 20260504025448 | 43 | 176 | 0.9 | 1.7 | 0.01 | 0.02 | 0.02 | 90 | 1008.0 |
| 20260504024946 | 43 | 122 | 0.0 | 4.3 | 0.01 | 0.02 | 0.02 | 90 | 1008.0 |
| 20260504022948 | 43 | 97 | 0.0 | 0.9 | 0.01 | 0.01 | 0.01 | 90 | 1008.2 |
| 20260504022447 | 43 | 89 | 0.0 | 0.0 | 0.01 | 0.01 | 0.01 | 90 | 1008.3 |
| 20260504021946 | 43 | 89 | 0.0 | 0.9 | 0.01 | 0.01 | 0.01 | 89 | 1008.3 |
| 20260504021447 | 44 | 89 | 0.0 | 0.9 | 0.01 | 0.01 | 0.01 | 89 | 1008.5 |
| 20260504020948 | 44 | 89 | 0.0 | 0.0 | 0.01 | 0.01 | 0.01 | 88 | 1008.6 |
| 20260504020446 | 44 | 91 | 0.0 | 0.9 | 0.01 | 0.01 | 0.01 | 87 | 1008.6 |
| 20260504015946 | 45 | 91 | 0.0 | 0.9 | 0.01 | 0.01 | 0.01 | 85 | 1008.5 |
| 20260504015446 | 45 | 115 | 0.0 | 0.9 | 0.01 | 0.01 | 0.01 | 82 | 1008.6 |
| 20260504014948 | 46 | 169 | 0.0 | 2.6 | 0.01 | 0.01 | 0.01 | 77 | 1008.8 |
| 20260504014446 | 47 | 221 | 0.0 | 5.2 | 0.00 | 0.00 | 0.00 | 71 | 1008.6 |
| 20260504013946 | 47 | 64 | 0.0 | 5.2 | 0.00 | 0.00 | 0.00 | 66 | 1008.7 |
| 20260504013446 | 47 | 255 | 0.9 | 3.5 | 0.00 | 0.00 | 0.00 | 63 | 1008.6 |
| 20260504012947 | 48 | 53 | 3.5 | 3.5 | 0.00 | 0.00 | 0.00 | 63 | 1008.6 |
| 20260504012446 | 48 | 109 | 0.0 | 2.6 | 0.00 | 0.00 | 0.00 | 59 | 1008.5 |
| 20260504011446 | 48 | 39 | 0.0 | 7.8 | 0.00 | 0.00 | 0.00 | 57 | 1008.4 |
| 20260504010947 | 48 | 337 | 0.0 | 7.8 | 0.00 | 0.00 | 0.00 | 55 | 1008.4 |
| 20260504005946 | 48 | 75 | 0.9 | 4.3 | 0.00 | 0.00 | 0.00 | 54 | 1008.3 |
| 20260504005446 | 48 | 139 | 0.0 | 4.3 | 0.00 | 0.00 | 0.00 | 53 | 1008.3 |
| 20260504004445 | 48 | 288 | 0.9 | 7.0 | 0.00 | 0.00 | 0.00 | 52 | 1008.2 |
| 20260504003446 | 48 | 12 | 0.9 | 1.7 | 0.00 | 0.00 | 0.00 | 52 | 1008.3 |
| 20260504002947 | 48 | 59 | 0.0 | 2.6 | 0.00 | 0.00 | 0.00 | 51 | 1008.2 |
| 20260504002446 | 48 | 59 | 0.0 | 4.3 | 0.00 | 0.00 | 0.00 | 50 | 1008.2 |
| 20260504001945 | 48 | 164 | 0.0 | 4.3 | 0.00 | 0.00 | 0.00 | 50 | 1008.2 |
| 20260504001445 | 48 | 262 | 0.0 | 5.2 | 0.00 | 0.00 | 0.00 | 49 | 1008.2 |
| 20260504000945 | 48 | 32 | 3.5 | 9.6 | 0.00 | 0.00 | 0.00 | 49 | 1008.2 |
| 20260504000445 | 48 | 279 | 1.7 | 9.6 | 0.00 | 0.00 | 0.00 | 48 | 1008.2 |
| 20260503235945 | 49 | 58 | 0.9 | 4.3 | 0.00 | 0.00 | 0.00 | 48 | 1008.1 |
| 20260503235446 | 49 | 260 | 0.0 | 4.3 | 0.00 | 0.00 | 0.00 | 48 | 1008.1 |
| 20260503234945 | 49 | 248 | 0.0 | 4.3 | 0.00 | 0.00 | 0.00 | 49 | 1008.2 |
| 20260503234445 | 49 | 291 | 3.5 | 5.2 | 0.00 | 0.00 | 0.00 | 48 | 1008.1 |
| 20260503233945 | 49 | 155 | 0.9 | 5.2 | 0.00 | 0.00 | 0.00 | 49 | 1008.1 |
| 20260503233445 | 49 | 295 | 3.5 | 6.1 | 0.00 | 0.00 | 0.00 | 48 | 1008.1 |
| 20260503232945 | 49 | 270 | 0.0 | 6.1 | 0.00 | 0.00 | 0.00 | 49 | 1008.1 |
| 20260503232445 | 49 | 225 | 3.5 | 3.5 | 0.00 | 0.00 | 0.00 | 47 | 1008.0 |
| 20260503231945 | 49 | 127 | 0.0 | 3.5 | 0.00 | 0.00 | 0.00 | 47 | 1008.2 |
| 20260503231446 | 49 | 244 | 0.0 | 5.2 | 0.00 | 0.00 | 0.00 | 48 | 1008.1 |
| 20260503230444 | 49 | 223 | 1.7 | 7.0 | 0.00 | 0.00 | 0.00 | 48 | 1008.1 |
| 20260503225945 | 49 | 143 | 0.0 | 7.0 | 0.00 | 0.00 | 0.00 | 46 | 1008.2 |
| 20260503224444 | 50 | 113 | 1.7 | 5.2 | 0.00 | 0.00 | 0.00 | 47 | 1008.2 |
| 20260503223945 | 50 | 284 | 1.7 | 4.3 | 0.00 | 0.00 | 0.00 | 46 | 1008.2 |
| 20260503223445 | 51 | 309 | 3.5 | 7.0 | 0.00 | 0.00 | 0.00 | 46 | 1008.3 |
| 20260503222444 | 52 | 25 | 3.5 | 7.8 | 0.00 | 0.00 | 0.00 | 43 | 1008.3 |
| 20260503221944 | 52 | 200 | 1.7 | 7.8 | 0.00 | 0.00 | 0.00 | 42 | 1008.4 |
| 20260503221444 | 52 | 237 | 2.6 | 7.0 | 0.00 | 0.00 | 0.00 | 41 | 1008.4 |
| 20260503220944 | 53 | 233 | 2.6 | 9.6 | 0.00 | 0.00 | 0.00 | 42 | 1008.4 |
| 20260503220444 | 53 | 28 | 4.3 | 9.6 | 0.00 | 0.00 | 0.00 | 41 | 1008.3 |
| 20260503215445 | 53 | 336 | 3.5 | 11.3 | 0.00 | 0.00 | 0.00 | 42 | 1008.4 |
| 20260503214944 | 53 | 211 | 2.6 | 11.3 | 0.00 | 0.00 | 0.00 | 42 | 1008.5 |
| 20260503214444 | 53 | 258 | 2.6 | 8.7 | 0.00 | 0.00 | 0.00 | 42 | 1008.5 |
| 20260503213444 | 53 | 237 | 1.7 | 7.8 | 0.00 | 0.00 | 0.00 | 40 | 1008.4 |
| 20260503212944 | 53 | 10 | 0.9 | 10.4 | 0.00 | 0.00 | 0.00 | 41 | 1008.4 |
| 20260503212444 | 52 | 217 | 6.1 | 10.4 | 0.00 | 0.00 | 0.00 | 43 | 1008.5 |
| 20260503211944 | 52 | 187 | 0.0 | 9.6 | 0.00 | 0.00 | 0.00 | 41 | 1008.7 |
| 20260503211444 | 52 | 295 | 3.5 | 9.6 | 0.00 | 0.00 | 0.00 | 40 | 1008.5 |
| 20260503210444 | 53 | 290 | 3.5 | 13.0 | 0.00 | 0.00 | 0.00 | 38 | 1008.5 |
| 20260503205445 | 53 | 257 | 4.3 | 13.0 | 0.00 | 0.00 | 0.00 | 40 | 1008.3 |
| 20260503204444 | 52 | 301 | 9.6 | 13.0 | 0.00 | 0.00 | 0.00 | 38 | 1008.5 |
| 20260503203444 | 53 | 322 | 7.0 | 10.4 | 0.00 | 0.00 | 0.00 | 38 | 1008.7 |
| 20260503202943 | 53 | 309 | 5.2 | 10.4 | 0.00 | 0.00 | 0.00 | 37 | 1008.8 |
| 20260503202443 | 53 | 26 | 4.3 | 9.6 | 0.00 | 0.00 | 0.00 | 36 | 1008.7 |
| 20260503201944 | 53 | 295 | 5.2 | 9.6 | 0.00 | 0.00 | 0.00 | 37 | 1008.7 |
| 20260503201443 | 53 | 304 | 2.6 | 9.6 | 0.00 | 0.00 | 0.00 | 38 | 1008.7 |
| 20260503200943 | 53 | 319 | 9.6 | 9.6 | 0.00 | 0.00 | 0.00 | 37 | 1008.8 |
| 20260503195443 | 52 | 295 | 7.8 | 14.8 | 0.00 | 0.00 | 0.00 | 38 | 1008.8 |
| 20260503194943 | 52 | 6 | 4.3 | 14.8 | 0.00 | 0.00 | 0.00 | 39 | 1008.8 |
| 20260503194443 | 51 | 179 | 2.6 | 8.7 | 0.00 | 0.00 | 0.00 | 42 | 1008.8 |
| 20260503193943 | 51 | 330 | 3.5 | 8.7 | 0.00 | 0.00 | 0.00 | 41 | 1008.9 |
| 20260503192945 | 54 | 302 | 7.8 | 10.4 | 0.00 | 0.00 | 0.00 | 38 | 1009.1 |
| 20260503192443 | 54 | 259 | 4.3 | 7.8 | 0.00 | 0.00 | 0.00 | 39 | 1009.2 |
| 20260503191943 | 53 | 181 | 1.7 | 11.3 | 0.00 | 0.00 | 0.00 | 41 | 1009.2 |
| 20260503191443 | 52 | 281 | 1.7 | 11.3 | 0.00 | 0.00 | 0.00 | 40 | 1009.1 |
| 20260503190944 | 52 | 345 | 4.3 | 11.3 | 0.00 | 0.00 | 0.00 | 42 | 1009.3 |
| 20260503190443 | 52 | 271 | 4.3 | 11.3 | 0.00 | 0.00 | 0.00 | 42 | 1009.2 |
| 20260503185443 | 52 | 231 | 7.0 | 7.8 | 0.00 | 0.00 | 0.00 | 43 | 1009.4 |
| 20260503184943 | 50 | 11 | 1.7 | 7.8 | 0.00 | 0.00 | 0.00 | 42 | 1009.3 |
| 20260503184443 | 50 | 50 | 2.6 | 11.3 | 0.00 | 0.00 | 0.00 | 43 | 1009.4 |
| 20260503182942 | 50 | 317 | 6.1 | 13.9 | 0.00 | 0.00 | 0.00 | 45 | 1009.5 |
| 20260503182444 | 50 | 322 | 4.3 | 13.9 | 0.00 | 0.00 | 0.00 | 45 | 1009.6 |
| 20260503181942 | 49 | 302 | 2.6 | 7.0 | 0.00 | 0.00 | 0.00 | 48 | 1009.5 |
| 20260503180942 | 49 | 295 | 3.5 | 7.8 | 0.00 | 0.00 | 0.00 | 46 | 1009.6 |
| 20260503180444 | 49 | 215 | 1.7 | 7.0 | 0.00 | 0.00 | 0.00 | 46 | 1009.6 |
| 20260503175442 | 49 | 225 | 5.2 | 9.6 | 0.00 | 0.00 | 0.00 | 44 | 1009.7 |
| 20260503174942 | 49 | 250 | 3.5 | 6.1 | 0.00 | 0.00 | 0.00 | 43 | 1009.6 |
| 20260503174442 | 49 | 358 | 2.6 | 7.8 | 0.00 | 0.00 | 0.00 | 44 | 1009.8 |
| 20260503173943 | 49 | 285 | 5.2 | 10.4 | 0.00 | 0.00 | 0.00 | 42 | 1009.7 |
| 20260503173442 | 49 | 280 | 1.7 | 10.4 | 0.00 | 0.00 | 0.00 | 44 | 1009.8 |
| 20260503172942 | 49 | 281 | 2.6 | 8.7 | 0.00 | 0.00 | 0.00 | 44 | 1009.8 |
| 20260503172442 | 49 | 335 | 5.2 | 8.7 | 0.00 | 0.00 | 0.00 | 43 | 1009.8 |
| 20260503171942 | 48 | 247 | 1.7 | 10.4 | 0.00 | 0.00 | 0.00 | 45 | 1009.9 |
| 20260503171442 | 48 | 210 | 1.7 | 10.4 | 0.00 | 0.00 | 0.00 | 44 | 1009.9 |
| 20260503170942 | 48 | 220 | 1.7 | 11.3 | 0.00 | 0.00 | 0.00 | 44 | 1009.8 |
| 20260503170442 | 49 | 321 | 6.1 | 11.3 | 0.00 | 0.00 | 0.00 | 44 | 1009.9 |
| 20260503150940 | 46 | 255 | 0.9 | 11.3 | 0.00 | 0.00 | 0.00 | 50 | 1011.0 |
| 20260503150442 | 46 | 322 | 7.0 | 11.3 | 0.00 | 0.00 | 0.00 | 50 | 1011.0 |
| 20260503130940 | 43 | 171 | 0.0 | 6.1 | 0.00 | 0.00 | 0.00 | 69 | 1011.8 |
| 20260503130440 | 42 | 271 | 0.0 | 6.1 | 0.00 | 0.00 | 0.00 | 69 | 1011.7 |
| 20260503090438 | 35 | 79 | 0.0 | 0.0 | 0.00 | 0.00 | 0.00 | 94 | 1011.3 |
| 20260503081437 | 35 | 79 | 0.0 | 0.0 | 0.00 | 0.00 | 0.00 | 94 | 1011.5 |
| 20260503080937 | 35 | 79 | 0.0 | 0.0 | 0.00 | 0.00 | 0.00 | 94 | 1011.6 |
| 20260503080437 | 35 | 79 | 0.0 | 0.0 | 0.00 | 0.00 | 0.00 | 93 | 1011.6 |
| 20260503072937 | 36 | 79 | 0.0 | 0.0 | 0.00 | 0.00 | 0.00 | 92 | 1011.5 |
| 20260503072437 | 36 | 79 | 0.0 | 0.0 | 0.00 | 0.00 | 0.00 | 93 | 1011.5 |
| 20260503071938 | 36 | 79 | 0.0 | 0.0 | 0.00 | 0.00 | 0.00 | 92 | 1011.5 |
| 20260503071437 | 36 | 79 | 0.0 | 0.0 | 0.00 | 0.00 | 0.00 | 92 | 1011.5 |
| 20260503070936 | 36 | 79 | 0.0 | 0.0 | 0.00 | 0.00 | 0.00 | 92 | 1011.6 |
| 20260503070436 | 36 | 79 | 0.0 | 0.0 | 0.00 | 0.00 | 0.00 | 92 | 1011.6 |
| 20260503054936 | 36 | 124 | 0.0 | 0.0 | 0.00 | 0.00 | 0.00 | 92 | 1011.7 |
| 20260503054436 | 36 | 123 | 0.0 | 0.0 | 0.00 | 0.00 | 0.00 | 92 | 1011.8 |